| time (UTC) | temp F | wind direction | speed knots | gust knots | rain 1hr in | rain 24hr in | rain mn in | humidity % | barometer mb |
| 20260504044540 | 44 | 243 | 4.3 | 11.3 | 0.03 | 0.11 | 0.11 | 75 | 1014.6 |
| 20260504043015 | 44 | 244 | 5.2 | 13.9 | 0.01 | 0.09 | 0.09 | 76 | 1014.9 |
| 20260504041516 | 43 | 236 | 6.1 | 10.4 | 0.01 | 0.09 | 0.09 | 75 | 1014.9 |
| 20260504040105 | 43 | 240 | 5.2 | 13.0 | 0.01 | 0.09 | 0.09 | 75 | 1014.8 |
| 20260504034605 | 43 | 240 | 6.1 | 12.2 | 0.00 | 0.08 | 0.08 | 75 | 1014.6 |
| 20260504033048 | 43 | 233 | 6.1 | 10.4 | 0.00 | 0.08 | 0.08 | 75 | 1014.3 |
| 20260504031537 | 43 | 238 | 5.2 | 12.2 | 0.02 | 0.08 | 0.08 | 75 | 1014.3 |
| 20260504030036 | 42 | 237 | 4.3 | 9.6 | 0.04 | 0.08 | 0.08 | 75 | 1014.6 |
| 20260504024517 | 42 | 232 | 6.1 | 10.4 | 0.06 | 0.08 | 0.08 | 75 | 1014.7 |
| 20260504023116 | 42 | 232 | 7.0 | 13.0 | 0.07 | 0.08 | 0.08 | 74 | 1015.1 |
| 20260504021557 | 42 | 244 | 4.3 | 13.9 | 0.06 | 0.06 | 0.06 | 73 | 1015.3 |
| 20260504020101 | 43 | 234 | 7.0 | 12.2 | 0.04 | 0.04 | 0.04 | 72 | 1015.3 |
| 20260504014547 | 44 | 250 | 8.7 | 15.6 | 0.02 | 0.02 | 0.02 | 72 | 1015.2 |
| 20260504013045 | 45 | 240 | 9.6 | 14.8 | 0.01 | 0.01 | 0.01 | 73 | 1015.3 |
| 20260504011521 | 45 | 226 | 6.1 | 11.3 | 0.00 | 0.00 | 0.00 | 72 | 1015.1 |
| 20260504010022 | 45 | 200 | 2.6 | 7.0 | 0.00 | 0.00 | 0.00 | 71 | 1014.9 |
| 20260504004507 | 46 | 222 | 1.7 | 6.1 | 0.00 | 0.00 | 0.00 | 67 | 1014.9 |
| 20260504003005 | 46 | 216 | 1.7 | 4.3 | 0.00 | 0.00 | 0.00 | 63 | 1014.8 |
| 20260504001544 | 46 | 242 | 4.3 | 8.7 | 0.00 | 0.00 | 0.00 | 61 | 1015.0 |
| 20260504000044 | 46 | 234 | 5.2 | 10.4 | 0.00 | 0.00 | 0.00 | 60 | 1015.0 |
| 20260503234536 | 46 | 254 | 7.0 | 11.3 | 0.00 | 0.00 | 0.00 | 53 | 1015.0 |
| 20260503233024 | 46 | 250 | 7.0 | 10.4 | 0.00 | 0.00 | 0.00 | 51 | 1015.1 |
| 20260503231506 | 46 | 246 | 6.1 | 9.6 | 0.00 | 0.00 | 0.00 | 49 | 1015.1 |
| 20260503230006 | 46 | 240 | 5.2 | 10.4 | 0.00 | 0.00 | 0.00 | 48 | 1015.1 |
| 20260503224547 | 47 | 251 | 4.3 | 10.4 | 0.00 | 0.00 | 0.00 | 45 | 1015.1 |
| 20260503223051 | 47 | 282 | 6.1 | 10.4 | 0.00 | 0.00 | 0.00 | 46 | 1015.1 |
| 20260503221528 | 47 | 261 | 7.0 | 17.4 | 0.00 | 0.00 | 0.00 | 46 | 1015.2 |
| 20260503220029 | 48 | 275 | 5.2 | 15.6 | 0.00 | 0.00 | 0.00 | 46 | 1015.3 |
| 20260503214513 | 48 | 265 | 10.4 | 17.4 | 0.00 | 0.00 | 0.00 | 44 | 1015.2 |
| 20260503213009 | 48 | 305 | 11.3 | 20.0 | 0.00 | 0.00 | 0.00 | 42 | 1015.2 |
| 20260503211549 | 48 | 292 | 8.7 | 16.5 | 0.00 | 0.00 | 0.00 | 42 | 1015.3 |
| 20260503210055 | 48 | 255 | 10.4 | 15.6 | 0.00 | 0.00 | 0.00 | 47 | 1015.4 |
| 20260503204546 | 46 | 230 | 8.7 | 15.6 | 0.00 | 0.00 | 0.00 | 49 | 1015.6 |
| 20260503203032 | 47 | 259 | 13.0 | 21.7 | 0.00 | 0.00 | 0.00 | 46 | 1015.9 |
| 20260503201532 | 47 | 255 | 13.9 | 21.7 | 0.00 | 0.00 | 0.00 | 46 | 1015.9 |
| 20260503200031 | 47 | 315 | 13.0 | 19.1 | 0.00 | 0.00 | 0.00 | 47 | 1015.9 |
| 20260503194532 | 47 | 263 | 13.0 | 18.2 | 0.00 | 0.00 | 0.00 | 48 | 1016.1 |
| 20260503193035 | 47 | 297 | 10.4 | 21.7 | 0.00 | 0.00 | 0.00 | 50 | 1016.3 |
| 20260503191525 | 46 | 311 | 9.6 | 17.4 | 0.00 | 0.00 | 0.00 | 49 | 1016.4 |
| 20260503190027 | 46 | 219 | 9.6 | 16.5 | 0.00 | 0.00 | 0.00 | 45 | 1016.8 |
| 20260503184519 | 46 | 237 | 10.4 | 17.4 | 0.00 | 0.00 | 0.00 | 43 | 1016.7 |
| 20260503183006 | 46 | 242 | 10.4 | 19.1 | 0.00 | 0.00 | 0.00 | 44 | 1016.8 |
| 20260503181506 | 46 | 252 | 12.2 | 21.7 | 0.00 | 0.00 | 0.00 | 43 | 1016.9 |
| 20260503180012 | 45 | 249 | 8.7 | 15.6 | 0.00 | 0.00 | 0.00 | 46 | 1016.9 |
| 20260503174502 | 45 | 278 | 9.6 | 17.4 | 0.00 | 0.00 | 0.00 | 47 | 1017.0 |
| 20260503173001 | 45 | 229 | 7.8 | 16.5 | 0.00 | 0.00 | 0.00 | 47 | 1017.2 |
| 20260503171600 | 45 | 290 | 9.6 | 18.2 | 0.00 | 0.00 | 0.00 | 49 | 1017.3 |
| 20260503100106 | 35 | 233 | 0.0 | 0.0 | 0.00 | 0.01 | 0.01 | 73 | 1017.9 |
| 20260503081545 | 36 | 238 | 0.0 | 0.0 | 0.00 | 0.01 | 0.01 | 73 | 1018.4 |
| 20260503071532 | 36 | 227 | 0.0 | 0.0 | 0.00 | 0.01 | 0.01 | 73 | 1018.2 |
| 20260503054509 | 36 | 243 | 0.0 | 0.0 | 0.00 | 0.01 | 0.01 | 74 | 1018.6 |